Location: Les Dourbettes
(44.0377°N, 6.2992°E)
Time: 00:03:43
(UTC+00:00)

Daily predictions for brighter satellites

Satellite Brightness Start Highest point End
(mag) Time Altitude Azimuth Time Altitude Azimuth Time Altitude Azimuth
GEOS 3 Rocket 3.8 00:07:38 34° ESE 00:09:54 68° NE 00:15:10 10° NNW
Cosmos 1726 3.6 00:08:29 10° NNW 00:10:54 30° WNW 00:10:54 30° WNW
COSMOS 2455 2.8 00:11:40 56° S 00:12:50 71° ESE 00:18:51 10° NE
Cosmos 2058 Rocket 3.7 00:08:53 10° N 00:13:09 46° ENE 00:13:46 43° ESE
Meteor 1-29 4.0 00:11:04 10° NNE 00:13:32 43° NE 00:13:32 43° NE
Cosmos 2228 2.9 00:11:26 10° N 00:15:32 81° NNW 00:15:32 81° NNW
SJ 16-02 4.4 00:15:05 10° NE 00:16:16 11° NE 00:17:26 10° ENE
SL-14 R/B 4.1 00:18:39 41° E 00:18:39 41° E 00:22:04 10° NNE
Meteor 2-15 Rocket 4.4 00:13:22 10° NNW 00:19:29 69° W 00:20:55 52° SSW
IRAS Rocket 4.4 00:17:53 41° SE 00:19:49 67° ENE 00:25:22 10° N
Cosmos 1953 3.9 00:16:46 10° NNW 00:19:26 25° WNW 00:19:26 25° WNW
Cosmos 1340 Rocket 4.0 00:18:08 10° NNW 00:21:08 33° WNW 00:21:08 33° WNW
Okean 1-7 Rocket 3.7 00:22:03 60° ESE 00:22:18 61° E 00:26:44 10° NNE
Cosmos 921 Rocket 4.0 00:23:34 33° ESE 00:23:38 33° E 00:27:30 10° NE
Cosmos 1300 3.6 00:21:16 10° N 00:24:54 40° ENE 00:25:04 40° E
BREEZE M DEB (TANK) 4.4 00:26:49 20° NE 00:26:49 20° NE 00:28:22 10° ENE
COSMOS 2487 3.6 00:25:01 10° NNW 00:27:18 37° NW 00:27:18 37° NW
Cosmos 1833 4.5 00:23:59 10° NW 00:29:22 48° WSW 00:29:45 47° WSW
Cosmos 1626 2.4 00:34:31 63° NE 00:34:31 63° NE 00:37:51 10° NNE
STARLINK-60 4.4 00:36:27 35° NE 00:36:27 35° NE 00:38:26 10° NE
Cosmos 1656 Rocket 4.4 00:33:51 33° WSW 00:35:46 45° WNW 00:41:08 10° NNE
Cosmos 1606 Rocket 4.0 00:34:54 10° NNW 00:38:48 45° W 00:38:48 45° W
FALCON 9 R/B 3.3 00:38:25 40° SSW 00:40:05 46° SSE 00:57:27 10° E
Nadezhda 1 Rocket 4.4 00:36:29 10° N 00:42:32 56° ENE 00:45:52 27° SE
MOZ.5/SAFIR/RUBIN 5/SL-8 4.2 00:44:16 37° SE 00:45:50 56° ENE 00:50:23 10° N
Meteor 2-21 4.5 00:45:34 46° SSW 00:47:26 71° W 00:53:38 10° N
Cosmos 2297 Rocket 3.8 00:43:54 10° N 00:48:57 32° NE 00:53:58 10° ESE
SL-4 R/B 2.3 00:49:12 55° WSW 00:50:16 83° NNW 00:55:03 10° ENE
Cosmos 1437 3.7 00:52:48 42° NE 00:52:48 42° NE 00:55:00 10° NNE
Cosmos 1674 4.3 00:53:21 23° WNW 00:53:21 23° WNW 00:56:13 10° NNW
ATLAS CENTAUR R/B 1.8 00:56:56 49° W 00:57:40 57° NW 01:01:47 10° NNE
SL-19 R/B 4.3 00:52:55 10° N 00:58:18 71° WNW 01:00:03 44° SW
SL-16 R/B 2.7 00:56:01 24° SSE 00:59:53 69° ENE 01:06:01 10° N
Cosmos 1777 Rocket 3.9 00:55:31 10° NNW 01:00:42 67° WSW 01:01:54 50° SSW
NOSS 3-4 (A) 4.1 00:57:31 25° WSW 01:00:42 47° NW 01:06:51 10° NNE
NOSS 3-4 (C) 4.1 00:57:38 25° WSW 01:00:48 47° NW 01:06:58 10° NNE
Timation 2 Rocket 3.9 00:54:41 10° NNW 01:01:05 88° WSW 01:04:30 28° SSE
FALCON 9 DEB 4.1 01:02:08 39° E 01:02:08 39° E 01:04:39 10° ENE
BREEZE-M R/B 3.0 01:01:07 60° S 01:01:24 62° SSE 01:04:37 10° ENE
Spot 1 4.3 01:00:54 55° SW 01:01:26 59° W 01:06:12 10° NNW
Cosmos 1602 Rocket 4.0 01:01:58 42° SE 01:02:58 52° E 01:07:11 10° NNE
STARLINK-29 3.6 01:04:34 52° ENE 01:04:34 52° ENE 01:07:05 10° NE
Cosmos 1455 4.1 01:04:06 10° NNE 01:07:15 25° ENE 01:09:23 16° ESE
ATLAS 3B R/B 2.6 01:01:28 10° NW 01:08:14 68° WSW 01:12:43 24° SSE
CENTAUR R/B 3.7 01:04:34 10° NW 01:12:02 38° WSW 01:14:47 31° SSW
BREEZE-M DEB (TANK) 2.4 01:12:39 40° NNW 01:12:39 40° NNW 01:14:49 10° NE
GP-B 4.5 01:09:40 10° NNE 01:13:42 33° E 01:16:10 19° SE
Meteor 2-1 Rocket 4.4 01:09:15 10° N 01:14:45 68° ENE 01:18:03 25° SSE
Cosmos 1745 Rocket 3.9 01:12:45 38° SSW 01:15:19 84° W 01:21:30 10° N
Cosmos 1867 4.1 01:11:30 10° NW 01:16:29 37° WSW 01:16:44 37° WSW
STARLINK-1390 4.5 01:19:27 30° ESE 01:19:27 30° ESE 01:22:12 10° ENE
RESURS DK-1 2.6 01:19:17 48° WSW 01:20:02 57° WNW 01:24:09 10° NNE
Meteor 1-24 Rocket 4.3 01:22:03 32° WSW 01:23:42 40° WNW 01:28:46 10° N
Cosmos 2227 Rocket 3.0 01:19:12 10° NNW 01:24:44 50° ENE 01:30:14 10° SE
Cosmos 1356 Rocket 3.3 01:20:52 10° NNW 01:25:00 69° W 01:25:49 53° SSW
Cosmos 1697 Rocket 4.2 01:23:11 17° SSE 01:26:30 28° ESE 01:31:16 10° NE
CZ-2D R/B 2.0 01:22:47 10° NNE 01:28:05 88° WNW 01:30:15 37° SSW
ATLAS 2AS CENTAUR R/B 4.0 01:23:17 14° WSW 01:29:47 40° NW 01:37:09 10° NNE
ADEOS II 3.1 01:25:48 10° NNE 01:30:43 39° E 01:34:07 18° SSE
IKONOS-2 4.4 01:29:56 45° S 01:31:09 72° WSW 01:35:26 10° NNW
CZ-4C R/B 3.6 01:30:46 47° SW 01:31:27 53° W 01:35:41 10° NNW
STARLINK-1228 2.9 01:32:30 10° WNW 01:35:52 83° SW 01:39:11 10° SE
STARLINK-1234 2.7 01:33:56 10° WNW 01:41:18 - SE 01:37:02 85° SW
Resurs 1-4 Rocket 2.1 01:32:33 10° N 01:37:50 71° WNW 01:40:11 34° SSW
STARLINK-1212 3.0 01:35:18 10° NW 01:38:25 72° NE 01:41:31 10° ESE
USA 81 4.0 01:36:19 32° S 01:38:50 87° W 01:44:08 10° N
STARLINK-1105 3.0 01:35:47 10° NW 01:38:52 72° NNE 01:41:57 10° ESE
STARLINK-1209 3.2 01:36:11 10° WNW 01:44:32 - SE 01:38:42 52° WNW
STARLINK-1247 3.0 01:36:41 10° NW 01:39:49 74° NE 01:42:55 10° ESE
STARLINK-1227 2.9 01:37:09 10° NW 01:40:15 75° NNE 01:43:20 10° ESE
STARLINK-52 3.5 01:39:41 42° WNW 01:40:22 51° NNW 01:43:30 10° NE
STARLINK-1226 2.9 01:38:00 10° NW 01:41:07 76° NNE 01:44:13 10° ESE
Cosmos 1758 Rocket 3.8 01:39:22 31° SSE 01:41:20 64° E 01:45:39 10° NNE
STARLINK-1215 2.9 01:38:56 10° NW 01:42:04 78° NNE 01:45:11 10° ESE
ARIANE 5 R/B 4.0 01:38:20 10° NE 01:42:47 30° E 01:46:55 11° SSE
STARLINK-1217 2.8 01:40:42 10° NW 01:43:49 80° NNE 01:46:56 10° ESE
STARLINK-1229 2.8 01:41:37 10° NW 01:44:45 82° NNE 01:47:52 10° ESE
NPP 3.7 01:39:53 10° N 01:45:16 73° WNW 01:47:57 30° SSW
STARLINK-1270 2.8 01:42:29 10° NW 01:45:37 83° NE 01:48:45 10° ESE
STARLINK-1189 2.8 01:44:20 10° NW 01:47:27 87° NE 01:50:35 10° SE
STARLINK-1188 2.8 01:45:12 10° NW 01:48:21 88° NE 01:51:27 10° SE
STARLINK-1235 2.6 01:45:54 10° WNW 01:49:00 70° SW 01:52:04 10° SE
STARLINK-1187 2.6 01:46:19 10° WNW 01:49:25 80° SW 01:52:31 10° SE
Meteor 1-21 Rocket 4.2 01:46:49 29° SSW 01:49:47 82° W 01:55:29 10° N
Cosmos 1898 Rocket 3.8 01:44:42 10° NNW 01:50:02 68° ENE 01:55:19 10° SSE
STARLINK-1191 2.7 01:47:41 10° NW 01:50:48 88° SW 01:53:54 10° SE
Cosmos 1656 3.7 01:48:20 29° SSW 01:51:23 81° ESE 01:57:03 10° NNE
Lacrosse 4 Rocket 3.9 01:47:52 10° N 01:51:27 24° NE 01:54:56 10° ESE
STARLINK-1221 2.7 01:48:33 10° WNW 01:51:40 86° SSW 01:54:46 10° SE
STARLINK-1222 2.7 01:49:27 10° WNW 01:52:34 85° SSW 01:55:39 10° SE
CZ-4C R/B 2.8 01:50:43 23° S 01:53:24 41° ESE 01:58:42 10° NE
STARLINK-1214 2.7 01:50:22 10° WNW 01:53:28 83° SSW 01:56:34 10° SE
STARLINK-1154 4.5 01:49:56 10° NW 01:54:00 52° NNE 01:58:03 10° ESE
Cosmos 2084 3.9 01:52:18 30° WSW 01:54:18 55° NW 01:58:43 10° NNE
Cosmos 468 Rocket 4.0 01:52:22 28° SSW 01:55:06 80° ESE 02:00:15 10° NNE
SJ 16-02 1.3 01:51:06 10° NNW 01:55:34 88° ENE 01:59:17 15° SSE
Cosmos 1953 Rocket 4.2 01:54:38 19° SSE 01:57:39 53° E 02:02:00 10° NNE
STARLINK-1197 4.3 01:54:54 10° NW 01:59:00 56° NNE 02:03:04 10° ESE
COSMOS 2455 4.4 01:54:47 11° W 01:59:20 26° NW 02:04:16 10° NNE
Cosmos 2369 4.3 01:55:55 19° S 01:59:44 50° ESE 02:05:10 10° NE
Cosmos 1937 Rocket 4.0 01:55:06 10° NNW 02:00:18 60° ENE 02:05:30 10° SSE
Meteor 2-10 Rocket 3.5 01:57:15 10° NNW 02:02:33 67° W 02:06:01 21° S
STARLINK-1198 4.2 01:59:51 10° NW 02:03:57 60° NNE 02:08:03 10° ESE
Cosmos 1709 Rocket 4.0 02:01:48 24° SSW 02:05:29 63° W 02:11:35 10° N
STARLINK-1199 4.1 02:04:51 10° NW 02:09:00 64° NNE 02:13:06 10° ESE
STARLINK-1210 3.9 02:09:49 10° NW 02:13:57 69° NNE 02:18:05 10° ESE
STARLINK-1320 2.9 02:14:52 32° WSW 02:16:07 71° NNW 02:19:14 10° NE
STARLINK-1322 3.0 02:15:11 32° WSW 02:16:28 70° NNW 02:19:35 10° NE
STARLINK-1324 3.0 02:15:32 31° WSW 02:16:49 70° NNW 02:19:56 10° NE
STARLINK-1294 3.0 02:15:47 31° WSW 02:17:06 70° NNW 02:20:14 10° NE
STARLINK-1261 3.0 02:16:09 31° WSW 02:17:28 69° NNW 02:20:35 10° NE
Cosmos 2219 3.5 02:12:11 10° NW 02:17:34 45° WSW 02:22:14 13° S
STARLINK-1325 3.0 02:16:30 30° WSW 02:17:50 68° NNW 02:20:56 10° NE
STARLINK-1333 3.0 02:16:48 30° WSW 02:18:08 68° NNW 02:21:15 10° NE
STARLINK-1334 3.0 02:17:07 30° WSW 02:18:28 68° NNW 02:21:36 10° NE
Cosmos 1980 Rocket 3.2 02:13:41 11° S 02:18:40 40° ESE 02:23:54 10° NE
STARLINK-1326 3.0 02:17:28 30° WSW 02:18:49 67° NNW 02:21:56 10° NE
STARLINK-1219 3.8 02:14:47 10° NW 02:18:56 74° NNE 02:23:04 10° ESE
STARLINK-1323 3.0 02:17:47 29° WSW 02:19:10 67° NNW 02:22:16 10° NE
STARLINK-1338 3.2 02:17:39 28° WSW 02:19:22 77° NNW 02:22:51 10° NE
STARLINK-1349 3.0 02:18:06 29° WSW 02:19:30 66° NNW 02:22:36 10° NE
STARLINK-1336 3.0 02:18:28 29° WSW 02:19:51 66° NNW 02:22:58 10° NE
STARLINK-1331 3.0 02:18:45 28° WSW 02:20:10 65° NNW 02:23:16 10° NE
STARLINK-1344 3.1 02:19:05 28° WSW 02:20:31 65° NNW 02:23:38 10° NE
STARLINK-1343 3.1 02:19:25 28° WSW 02:20:51 64° NNW 02:23:57 10° NE
Cosmos 858 Rocket 4.5 02:15:41 10° NNW 02:20:59 90° WSW 02:26:16 10° SSE
STARLINK-1346 3.1 02:19:43 27° WSW 02:21:12 64° NNW 02:24:21 10° NE
Cosmos 1328 3.9 02:19:18 24° SSW 02:21:31 62° W 02:25:29 10° N
STARLINK-1328 3.1 02:20:05 27° WSW 02:21:32 63° NNW 02:24:39 10° NE
STARLINK-1354 3.1 02:20:22 27° WSW 02:21:51 63° NNW 02:24:58 10° NE
STARLINK-1347 3.1 02:20:44 27° WSW 02:22:13 63° NNW 02:25:19 10° NE
STARLINK-1357 3.1 02:21:01 27° WSW 02:22:32 62° NNW 02:25:38 10° NE
STARLINK-1335 3.1 02:21:22 26° WSW 02:22:53 62° NNW 02:25:59 10° NE
STARLINK-1327 3.1 02:21:41 26° WSW 02:23:13 61° NNW 02:26:18 10° NE
CRYOSAT 2 4.3 02:18:27 10° N 02:23:22 76° W 02:27:17 16° SSW
STARLINK-1371 3.2 02:21:31 25° WSW 02:23:24 72° NNW 02:26:54 10° NE
STARLINK-1340 3.2 02:22:01 26° WSW 02:23:34 61° NNW 02:26:40 10° NE
ERS-2 2.5 02:20:11 10° SSE 02:23:48 64° ENE 02:27:27 10° N
STARLINK-1356 3.2 02:22:21 25° WSW 02:23:54 60° NNW 02:27:00 10° NE
STARLINK-1211 3.7 02:19:45 10° NW 02:23:54 80° NNE 02:28:02 10° ESE
STARLINK-1345 3.2 02:22:40 25° WSW 02:24:15 60° NNW 02:27:21 10° NE
STARLINK-1355 3.2 02:22:59 25° WSW 02:24:35 60° NNW 02:27:40 10° NE
STARLINK-1321 3.2 02:23:18 25° WSW 02:24:54 59° NNW 02:28:00 10° NE
STARLINK-1358 3.2 02:23:39 24° WSW 02:25:16 59° NNW 02:28:21 10° NE
STARLINK-1341 3.3 02:23:29 24° WSW 02:25:27 69° NNW 02:28:56 10° NE
STARLINK-1332 3.2 02:23:57 24° WSW 02:25:35 58° NNW 02:28:41 10° NE
STARLINK-1348 3.2 02:24:18 24° WSW 02:25:57 58° NNW 02:29:02 10° NE
STARLINK-1330 3.2 02:24:36 24° WSW 02:26:16 58° NNW 02:29:21 10° NE
STARLINK-1363 3.2 02:24:56 24° WSW 02:26:36 57° NNW 02:29:41 10° NE
STARLINK-1337 3.3 02:25:15 23° WSW 02:26:56 57° NNW 02:30:02 10° NE
STARLINK-1342 3.3 02:25:35 23° WSW 02:27:17 56° NNW 02:30:22 10° NE
STARLINK-1374 3.3 02:25:26 22° WSW 02:27:30 67° NNW 02:31:00 10° NE
STARLINK-1364 3.3 02:25:55 23° WSW 02:27:38 56° NNW 02:30:43 10° NE
STARLINK-1376 3.3 02:26:15 23° WSW 02:27:59 56° NNW 02:31:03 10° NE
STARLINK-1360 3.3 02:26:30 22° WSW 02:28:15 55° NNW 02:31:20 10° NE
STARLINK-1361 3.3 02:26:56 22° WSW 02:28:41 55° NNW 02:31:46 10° NE
STARLINK-1245 3.6 02:24:44 10° NW 02:28:54 86° NNE 02:33:02 10° SE
STARLINK-1367 3.3 02:27:10 22° WSW 02:28:57 55° NNW 02:32:04 10° NE
CSL-04 DEB 4.5 02:24:47 10° SSE 02:29:01 85° WSW 02:33:21 10° NNW
IRS-1C 4.1 02:23:40 10° NNE 02:29:01 78° WNW 02:33:25 15° SSW
STARLINK-1366 3.3 02:27:33 22° WSW 02:29:19 54° NNW 02:32:24 10° NE
STARLINK-1339 3.4 02:27:27 21° WSW 02:29:35 64° NNW 02:33:05 10° NE
SL-4 R/B 3.7 02:26:02 10° WNW 02:30:28 36° NNW 02:34:45 10° NE
STARLINK-1377 3.4 02:29:28 20° WSW 02:31:41 62° NNW 02:35:11 10° NE
Cosmos 2297 Rocket 2.6 02:27:48 10° NW 02:33:06 42° WSW 02:38:21 10° S
STARLINK-1353 3.5 02:31:17 19° WSW 02:33:33 60° NNW 02:37:00 10° NE
STARLINK-1233 3.5 02:29:42 10° NW 02:33:52 88° SW 02:38:01 10° SE
STARLINK-1375 3.5 02:33:04 19° WSW 02:35:25 58° NNW 02:38:51 10° NE
Cosmos 540 Rocket 3.5 02:32:22 14° SSW 02:36:48 78° ESE 02:41:57 10° NNE
Cosmos 2082 3.6 02:31:15 10° NNW 02:36:56 78° WSW 02:42:31 10° SSE
ATLAS CENTAUR R/B 4.0 02:36:14 10° NW 02:37:22 11° NNW 02:38:30 10° NNW
STARLINK-1350 3.6 02:35:22 17° WSW 02:37:49 55° NNW 02:41:15 10° NE
STARLINK-1204 3.5 02:34:42 10° WNW 02:38:52 81° SW 02:43:00 10° SE
Cosmos 990 Rocket 4.4 02:33:55 10° NNW 02:38:53 44° WSW 02:43:49 10° S
STARLINK-1352 3.7 02:37:39 16° WSW 02:40:15 54° NNW 02:43:43 10° NE
Landsat 5 4.4 02:36:17 10° SSE 02:40:40 57° ENE 02:45:08 10° N
Cosmos 1825 Rocket 4.4 02:38:21 18° SW 02:41:00 34° WNW 02:44:59 10° N
Cosmos 2278 3.8 02:36:08 13° SSW 02:41:13 74° ESE 02:46:53 10° NNE
STARLINK-1368 3.8 02:39:45 15° WSW 02:42:25 52° NNW 02:45:53 10° NE
Cosmos 1455 3.6 02:39:51 10° NW 02:42:44 21° W 02:44:15 17° WSW
CZ-2D R/B 3.6 02:39:14 10° NNE 02:43:22 77° ESE 02:47:34 10° S
Meteor 1-11 4.2 02:38:11 12° SSW 02:43:24 75° W 02:49:02 10° N
Meteor 1-28 Rocket 3.1 02:39:51 10° S 02:43:37 77° WSW 02:47:25 10° NNW
STARLINK-1238 3.5 02:39:39 10° WNW 02:43:48 75° SW 02:47:56 10° SE
SL-16 R/B 3.9 02:41:06 15° SW 02:44:01 20° W 02:48:25 10° NW
STARLINK-1369 3.8 02:41:37 15° WSW 02:44:21 50° NNW 02:47:46 10° NE
USA 234 3.9 02:38:38 10° ENE 02:44:53 46° SE 02:51:06 10° SSW
Cosmos 2074 Rocket 4.0 02:40:29 10° SSW 02:46:46 76° W 02:53:06 10° N
STARLINK-1372 3.9 02:43:57 14° WSW 02:46:50 48° NNW 02:50:16 10° NE
ATLAS CENTAUR R/B 2.9 02:43:47 10° WNW 02:47:16 43° SW 02:55:15 10° SSE
Cosmos 2263 Rocket 4.1 02:43:39 10° N 02:48:47 34° NE 02:53:50 10° ESE
STARLINK-1201 3.5 02:44:40 10° WNW 02:48:48 69° SW 02:52:54 10° SE
STARLINK-1378 3.9 02:46:05 13° W 02:49:03 47° NNW 02:52:30 10° NE
Cosmos 841 Rocket 3.5 02:44:27 13° SSW 02:49:06 77° WNW 02:54:22 10° NNE
STARLINK-1329 4.0 02:46:35 13° W 02:49:35 46° NNW 02:53:01 10° NE
STARLINK-1365 4.0 02:47:17 12° W 02:50:20 44° NNW 02:53:44 10° NE
Cosmos 372 Rocket 4.2 02:45:30 10° NNW 02:50:38 74° ENE 02:55:47 10° SSE
GP-B 4.5 02:47:19 10° NNW 02:50:50 23° WNW 02:53:36 13° WSW
STARLINK-1379 4.0 02:48:13 12° W 02:51:17 45° NNW 02:54:43 10° NE
STARLINK-1362 4.0 02:48:47 12° W 02:51:53 45° NNW 02:55:19 10° NE
Cosmos 1892 4.5 02:49:30 10° SSE 02:52:56 31° E 02:56:20 10° NNE
COBE Rocket 4.0 02:48:47 10° S 02:53:38 63° W 02:58:39 10° NNW
STARLINK-1206 3.6 02:49:39 10° WNW 02:53:46 63° SW 02:57:51 10° SE
STARLINK-1373 4.1 02:50:59 11° W 02:54:11 44° NNW 02:57:36 10° NE
Cosmos-2242 4.1 02:50:47 10° NNW 02:54:21 26° W 02:57:21 13° SW
Cosmos 1869 4.1 02:51:15 10° N 02:55:06 53° ENE 02:58:53 10° SSE
Cosmos 1400 Rocket 3.0 02:51:38 10° NNW 02:55:41 57° W 02:59:43 10° S
STARLINK-1390 4.1 02:52:59 11° W 02:56:15 42° NNW 02:59:39 10° NE
Cosmos 2221 2.9 02:52:11 10° N 02:56:30 68° E 03:00:49 10° SSE
ATLAS 3B R/B 4.3 02:55:17 10° W 02:57:46 12° WSW 02:59:50 11° WSW
Cosmos 2184 Rocket 4.1 02:52:12 10° SSW 02:58:19 64° W 03:04:28 10° N
STARLINK-1205 3.6 02:54:39 10° WNW 02:58:44 58° SW 03:02:47 10° SE
SL-08 R/B 3.9 02:54:50 10° SSW 02:59:12 37° W 03:03:33 10° NNW
CZ-4C R/B 3.0 02:56:01 10° S 02:59:35 79° WSW 03:03:13 10° NNW
STARLINK-1218 3.7 02:59:38 10° WNW 03:03:40 53° SW 03:07:42 10° SE
CZ-2D R/B 4.1 03:04:52 10° NNW 03:07:20 13° WNW 03:09:48 10° W
Cosmos 2227 Rocket 3.2 03:03:53 10° NW 03:08:26 25° WSW 03:12:59 10° SSW
STARLINK-1254 3.8 03:04:38 10° WNW 03:08:39 48° SW 03:12:38 10° SSE
Cosmos 1697 Rocket 3.3 03:04:56 11° SW 03:10:13 45° WNW 03:15:41 10° NNE
ADEOS II 3.2 03:05:46 10° N 03:10:16 29° WNW 03:14:45 10° WSW
Cosmos 2150 Rocket 4.1 03:07:27 10° NNW 03:12:41 87° ENE 03:17:49 10° SSE
STARLINK-1231 3.9 03:09:40 10° WNW 03:13:37 44° SW 03:17:33 10° SSE
Cosmos 1315 Rocket 2.8 03:11:49 10° N 03:15:45 85° E 03:19:40 10° S
STARLINK-1246 4.5 03:11:52 10° NW 03:15:57 54° NNE 03:20:01 10° ESE
SL-16 R/B 3.7 03:11:02 10° S 03:16:06 35° ESE 03:21:12 10° NE
Resurs 1-4 Rocket 4.3 03:15:17 10° NW 03:16:42 11° NW 03:18:08 10° WNW
CZ-2C R/B 2.7 03:13:36 10° N 03:17:16 66° WNW 03:20:58 10° SSW
MSX 4.0 03:12:31 10° NNE 03:18:19 79° ESE 03:24:03 10° S
STARLINK-1232 4.0 03:14:41 10° WNW 03:18:35 40° SW 03:22:27 10° SSE
SAR-Lupe-4 3.7 03:16:09 10° SSE 03:19:43 79° ENE 03:23:20 10° N
H-2A R/B 2.6 03:16:00 10° S 03:20:02 40° W 03:24:13 10° NNW
STARLINK-1224 4.4 03:16:50 10° NW 03:20:57 58° NNE 03:25:02 10° ESE
ARIANE 5 R/B 3.3 03:17:20 10° N 03:21:54 35° WNW 03:26:24 10° SW
deb Chang Zheng 4 3.9 03:19:01 10° NNE 03:23:20 68° ESE 03:27:35 10° S
STARLINK-1208 4.1 03:19:41 10° WNW 03:23:31 37° SW 03:27:19 10° SSE
BREEZE-M R/B 3.8 03:21:09 10° WNW 03:24:00 27° N 03:26:10 10° NE
STARLINK-1225 4.2 03:21:49 10° NW 03:25:57 63° NNE 03:30:03 10° ESE
